CZ-2C R/B (39364 NORAD) Tracking and Keplerian Element Data

This shows tracking and keplerian element data for the satellite.

Feedback or suggestion? Click here.




ElementValue
Catalog39364
NameCZ-2C R/B
Epoch Orbit45685
Epoch Day15.71881993
Epoch Year2022
RAAN74.2928
Inclination97.1856
Eccentricity0.0045972
Argument of Perigee155.4727
Mean Anonmoly204.8714
Mean Motion15.29072186
Decay Rate5.32E-05
L11 39364U 13059B 22015.71881993 .00005320 00000+0 18521-3 0 9998
L22 39364 97.1856 74.2928 0045972 155.4727 204.8714 15.29072186456858

Live tracking and technical data element details for CZ-2C R/B (NORAD 39364). CZ-2C R/B can be tracked NOW for your location showing map with azimuth and elevation plus other details from your city location.

Track the satellite on the map from your city or location and see movement details for azimuth, elevation, latitude, longitude, range, height, and movement on the map or in text.







IsCatalogInMostPopularTable: catalog: 39364, numindb: 31
Update: records affected: 1



GetName: 39364 CZ-2C R/B

Hit Count: updated at: Mon, 17 Jan 2022 00:57:50 GMT